contact: severine.martini@mio.osupytheas.fr, dominique.lefevre@mio.osupytheas.fr
Project:EMSO Ligure-ouest http://www.emso-fr.org/EMSO-France
Sensor Aquadopp, Serial 05974 
DOI : "https://doi.org/10.17882/97948" 
Title:EMSO Western Ligurian : Data Bathybot Aquadopp sensor - deploiement 2023-04-28
Datetime,Profondeur,Latitude,Longitude,X_East,Y_North,Z_up,Amplitude_X,Amplitude_Y,Amplitude_Z,Batterie,Sound_Speed,Heading,Pitch,Roll,Pressure,Temperature,Fluorescence,Speed,Direction
time,m,degree_north,degree_east,m.s-1,m.s-1,m.s-1,1,1,1,Volt,m.s-1,degree,degree,degree,dbar,degree_C,arbitrary units (a.u.),m.s-1,degree
2024-02-03T00:03:13,2420,42.8014,5.9826,0.651,0.038,2.824,155.0,151.0,152.0,11.8,1504.7,271.6,-0.8,0.9,2485.504,13.29,772.0,0.652,86.7
2024-02-03T00:06:13,2420,42.8014,5.9826,1.064,0.034,3.287,155.0,152.0,152.0,11.8,1504.7,271.4,-0.9,0.9,2485.47,13.28,768.0,1.064,88.2
2024-02-03T00:09:13,2420,42.8014,5.9826,0.96,0.26,2.955,155.0,151.0,152.0,11.8,1504.7,271.3,-0.8,0.9,2485.43,13.29,791.0,0.995,74.8
2024-02-03T00:12:13,2420,42.8014,5.9826,1.158,0.092,3.048,155.0,151.0,152.0,11.8,1504.7,271.3,-0.8,0.9,2485.263,13.29,775.0,1.161,85.5
2024-02-03T00:15:14,2420,42.8014,5.9826,1.117,0.02,3.29,155.0,151.0,152.0,11.8,1504.7,271.4,-0.8,0.9,2484.934,13.29,768.0,1.117,89.0
2024-02-03T00:18:14,2420,42.8014,5.9826,0.845,0.257,2.225,155.0,152.0,152.0,11.7,1504.7,271.3,-0.8,0.9,2485.221,13.28,781.0,0.883,73.1
2024-02-03T00:21:14,2420,42.8014,5.9826,0.862,-0.222,3.062,155.0,151.0,152.0,11.8,1504.7,271.5,-0.8,0.9,2485.488,13.28,764.0,0.89,104.4
2024-02-03T00:24:14,2420,42.8014,5.9826,1.112,0.015,3.231,155.0,152.0,152.0,11.7,1504.7,271.3,-0.8,0.9,2485.468,13.28,762.0,1.112,89.2
2024-02-03T00:27:14,2420,42.8014,5.9826,1.018,0.256,2.915,155.0,151.0,152.0,11.8,1504.7,271.4,-0.8,0.9,2485.203,13.28,776.0,1.049,75.9
2024-02-03T00:30:13,2420,42.8014,5.9826,0.793,0.034,3.592,155.0,152.0,152.0,11.8,1504.7,271.5,-0.8,0.9,2485.394,13.28,771.0,0.794,87.6
2024-02-03T00:33:14,2420,42.8014,5.9826,0.615,-0.466,2.845,155.0,152.0,152.0,11.8,1504.7,271.5,-0.8,0.9,2485.685,13.28,775.0,0.772,127.2
2024-02-03T00:36:14,2420,42.8014,5.9826,0.796,-0.213,3.128,155.0,152.0,152.0,11.8,1504.7,271.5,-0.8,0.9,2485.229,13.28,779.0,0.824,105.0
2024-02-03T00:39:14,2420,42.8014,5.9826,0.918,0.257,2.983,155.0,152.0,152.0,11.8,1504.7,271.4,-0.8,0.9,2485.621,13.28,805.0,0.953,74.4
2024-02-03T00:42:14,2420,42.8014,5.9826,1.16,0.023,3.172,155.0,152.0,152.0,11.7,1504.7,271.4,-0.9,0.9,2485.468,13.29,776.0,1.16,88.9
2024-02-03T00:45:14,2420,42.8014,5.9826,1.083,0.037,3.284,155.0,151.0,152.0,11.8,1504.7,271.4,-0.8,0.9,2485.416,13.29,766.0,1.083,88.0
2024-02-03T00:48:14,2420,42.8014,5.9826,0.9,0.036,3.447,155.0,152.0,152.0,11.8,1504.7,271.3,-0.8,0.9,2485.241,13.29,771.0,0.901,87.7
2024-02-03T00:51:13,2420,42.8014,5.9826,0.894,-0.239,2.986,155.0,152.0,152.0,11.8,1504.7,271.3,-0.8,0.9,2485.641,13.28,771.0,0.925,105.0
2024-02-03T00:54:13,2420,42.8014,5.9826,1.001,0.038,3.363,155.0,151.0,152.0,11.8,1504.7,271.3,-0.8,0.9,2485.536,13.29,779.0,1.002,87.8
2024-02-03T00:57:13,2420,42.8014,5.9826,0.967,-0.221,2.93,155.0,152.0,152.0,11.8,1504.7,271.4,-0.8,0.9,2485.44,13.29,776.0,0.992,102.9
2024-02-03T01:03:13,2420,42.8014,5.9826,0.84,-0.219,3.112,155.0,152.0,152.0,11.8,1504.7,271.5,-0.8,0.9,2485.376,13.29,779.0,0.868,104.6
2024-02-03T01:06:13,2420,42.8014,5.9826,0.826,0.268,3.108,155.0,152.0,152.0,11.8,1504.7,271.5,-0.8,0.9,2485.42,13.28,2603.0,0.868,72.0
2024-02-03T01:09:14,2420,42.8014,5.9826,1.14,0.026,3.195,155.0,152.0,152.0,11.8,1504.7,271.4,-0.8,0.9,2485.651,13.29,782.0,1.14,88.7
2024-02-03T01:12:14,2420,42.8014,5.9826,0.907,0.29,2.943,155.0,152.0,152.0,11.8,1504.7,271.3,-0.8,0.9,2485.203,13.29,781.0,0.952,72.3
2024-02-03T01:15:14,2420,42.8014,5.9826,1.053,0.035,3.324,155.0,152.0,152.0,11.8,1504.7,271.5,-0.8,0.9,2485.464,13.29,769.0,1.053,88.1
2024-02-03T01:18:14,2420,42.8014,5.9826,0.771,0.285,3.162,155.0,152.0,152.0,11.8,1504.7,271.3,-0.8,0.9,2485.083,13.29,777.0,0.822,69.7
2024-02-03T01:21:13,2420,42.8014,5.9826,0.885,-0.217,3.026,155.0,151.0,152.0,11.8,1504.7,271.4,-0.8,0.9,2485.719,13.29,790.0,0.911,103.8
2024-02-03T01:24:13,2420,42.8014,5.9826,1.081,0.024,3.261,155.0,152.0,152.0,11.8,1504.7,271.4,-0.8,0.9,2485.627,13.29,777.0,1.081,88.7
2024-02-03T01:27:14,2420,42.8014,5.9826,0.712,0.029,2.774,155.0,151.0,152.0,11.8,1504.7,271.4,-0.8,0.9,2485.556,13.29,774.0,0.712,87.7
2024-02-03T01:30:14,2420,42.8014,5.9826,0.855,0.034,3.481,155.0,151.0,152.0,11.7,1504.7,271.3,-0.8,0.9,2485.438,13.29,779.0,0.856,87.7
2024-02-03T01:33:14,2420,42.8014,5.9826,0.955,-0.208,2.911,156.0,152.0,152.0,11.8,1504.7,271.5,-0.8,0.9,2485.621,13.29,776.0,0.977,102.3
2024-02-03T01:36:14,2420,42.8014,5.9826,1.046,0.022,3.276,155.0,152.0,152.0,11.8,1504.7,271.5,-0.8,0.9,2485.611,13.29,782.0,1.046,88.8
2024-02-03T01:39:14,2420,42.8014,5.9826,0.889,0.032,3.454,155.0,151.0,152.0,11.8,1504.7,271.3,-0.9,0.9,2485.47,13.29,782.0,0.89,87.9
2024-02-03T01:42:14,2420,42.8014,5.9826,0.828,0.278,3.11,155.0,151.0,152.0,11.8,1504.7,271.4,-0.8,0.9,2485.508,13.29,777.0,0.873,71.4
2024-02-03T01:45:14,2420,42.8014,5.9826,0.981,0.266,2.927,155.0,152.0,152.0,11.7,1504.7,271.3,-0.8,0.9,2485.016,13.28,781.0,1.016,74.8
2024-02-03T01:48:13,2420,42.8014,5.9826,0.967,0.248,2.927,155.0,151.0,152.0,11.7,1504.7,271.5,-0.8,0.9,2485.478,13.28,774.0,0.998,75.6
2024-02-03T01:51:13,2420,42.8014,5.9826,1.077,0.017,3.274,155.0,151.0,152.0,11.8,1504.7,271.3,-0.9,0.9,2485.283,13.29,786.0,1.077,89.1
2024-02-03T01:54:14,2420,42.8014,5.9826,0.745,0.265,3.118,155.0,152.0,152.0,11.8,1504.7,271.4,-0.9,0.9,2485.354,13.28,758.0,0.791,70.4
2024-02-03T01:57:14,2420,42.8014,5.9826,0.626,0.28,2.413,155.0,151.0,152.0,11.8,1504.7,271.3,-0.9,0.9,2485.466,13.28,781.0,0.686,65.9
2024-02-03T02:03:13,2420,42.8014,5.9826,1.106,-0.249,2.806,156.0,151.0,152.0,11.8,1504.7,271.5,-0.8,0.9,2485.54,13.29,768.0,1.134,102.7
2024-02-03T02:06:13,2420,42.8014,5.9826,1.088,0.015,3.246,155.0,151.0,152.0,11.8,1504.7,271.4,-0.8,0.9,2485.464,13.28,778.0,1.088,89.2
2024-02-03T02:09:14,2420,42.8014,5.9826,0.826,0.276,2.19,155.0,152.0,152.0,11.8,1504.7,271.4,-0.8,0.9,2485.173,13.28,785.0,0.871,71.5
2024-02-03T02:12:14,2420,42.8014,5.9826,1.01,0.039,3.292,155.0,151.0,152.0,11.8,1504.7,271.4,-0.8,0.9,2485.257,13.29,788.0,1.011,87.8
2024-02-03T02:15:14,2420,42.8014,5.9826,0.96,0.044,3.393,155.0,151.0,152.0,11.8,1504.7,271.3,-0.9,0.9,2485.765,13.29,781.0,0.961,87.4
2024-02-03T02:18:14,2420,42.8014,5.9826,1.11,0.031,3.262,155.0,152.0,152.0,11.7,1504.7,271.3,-0.8,0.9,2485.356,13.29,781.0,1.11,88.4
2024-02-03T02:21:14,2420,42.8014,5.9826,0.879,-0.213,3.043,155.0,152.0,152.0,11.8,1504.7,271.4,-0.8,0.9,2485.488,13.29,775.0,0.904,103.6
2024-02-03T02:24:14,2420,42.8014,5.9826,0.559,-0.221,2.463,155.0,152.0,152.0,11.8,1504.7,271.4,-0.8,0.9,2485.358,13.29,794.0,0.601,111.6
2024-02-03T02:27:14,2420,42.8014,5.9826,1.043,0.023,3.34,155.0,152.0,152.0,11.8,1504.7,271.4,-0.9,0.9,2485.291,13.29,776.0,1.043,88.7
2024-02-03T02:30:13,2420,42.8014,5.9826,0.929,-0.226,2.947,155.0,152.0,152.0,11.7,1504.7,271.4,-0.8,0.9,2485.49,13.29,772.0,0.956,103.7
2024-02-03T02:33:13,2420,42.8014,5.9826,0.98,0.231,2.896,155.0,152.0,152.0,11.8,1504.7,271.5,-0.9,0.9,2485.412,13.29,772.0,1.007,76.7
2024-02-03T02:36:14,2420,42.8014,5.9826,0.795,0.038,2.676,155.0,152.0,152.0,11.7,1504.7,271.4,-0.8,0.9,2485.113,13.29,793.0,0.796,87.3
2024-02-03T02:39:14,2420,42.8014,5.9826,0.922,0.241,2.118,155.0,151.0,152.0,11.7,1504.7,271.4,-0.8,0.9,2485.39,13.29,786.0,0.953,75.4
2024-02-03T02:42:14,2420,42.8014,5.9826,0.697,0.016,2.807,155.0,152.0,152.0,11.7,1504.7,271.4,-0.8,0.9,2485.502,13.29,782.0,0.697,88.7
2024-02-03T02:45:14,2420,42.8014,5.9826,0.899,-0.197,3.024,155.0,151.0,152.0,11.8,1504.7,271.3,-0.8,0.9,2485.394,13.29,775.0,0.92,102.4
2024-02-03T02:48:14,2420,42.8014,5.9826,0.998,0.02,3.408,155.0,152.0,152.0,11.8,1504.7,271.5,-0.8,0.9,2485.494,13.29,783.0,0.998,88.9
2024-02-03T02:51:14,2420,42.8014,5.9826,0.776,-0.215,3.127,155.0,151.0,152.0,11.8,1504.7,271.3,-0.9,0.9,2485.821,13.29,778.0,0.805,105.5
2024-02-03T02:54:14,2420,42.8014,5.9826,0.829,0.269,3.102,155.0,151.0,152.0,11.7,1504.7,271.5,-0.8,0.9,2485.394,13.29,772.0,0.872,72.0
2024-02-03T02:57:13,2420,42.8014,5.9826,0.812,0.513,2.615,155.0,151.0,152.0,11.8,1504.7,271.4,-0.9,0.9,2485.532,13.29,782.0,0.96,57.7
2024-02-03T03:03:13,2420,42.8014,5.9826,1.199,0.021,3.146,155.0,152.0,152.0,11.7,1504.7,271.3,-0.9,0.9,2485.542,13.29,787.0,1.199,89.0
2024-02-03T03:06:14,2420,42.8014,5.9826,1.223,0.025,3.076,155.0,151.0,152.0,11.8,1504.7,271.3,-0.9,0.9,2485.589,13.29,776.0,1.223,88.8
2024-02-03T03:09:14,2420,42.8014,5.9826,0.198,0.064,3.978,156.0,152.0,153.0,11.7,1504.7,271.9,-0.8,0.9,2485.125,13.29,783.0,0.208,72.1
2024-02-03T03:12:13,2420,42.8014,5.9826,0.201,0.067,3.98,155.0,152.0,153.0,11.8,1504.7,271.3,-0.8,0.9,2485.103,13.29,773.0,0.211,71.6
2024-02-03T03:15:13,2420,42.8014,5.9826,0.235,0.055,3.951,156.0,152.0,153.0,11.8,1504.7,272.0,-0.8,0.8,2485.56,13.29,778.0,0.241,76.8
2024-02-03T03:18:13,2420,42.8014,5.9826,0.907,0.25,2.122,155.0,152.0,152.0,11.8,1504.7,271.4,-0.8,0.9,2485.498,13.29,779.0,0.941,74.6
2024-02-03T03:21:13,2420,42.8014,5.9826,1.008,-0.474,2.439,155.0,152.0,152.0,11.7,1504.7,271.4,-0.8,0.9,2485.432,13.29,782.0,1.114,115.2
2024-02-03T03:24:14,2420,42.8014,5.9826,1.005,0.017,2.457,155.0,152.0,152.0,11.8,1504.7,271.3,-0.8,0.9,2485.703,13.29,783.0,1.005,89.0
2024-02-03T03:27:14,2420,42.8014,5.9826,1.14,-0.237,2.754,155.0,152.0,152.0,11.8,1504.7,271.5,-0.9,0.9,2485.05,13.29,2252.0,1.164,101.7
2024-02-03T03:30:14,2420,42.8014,5.9826,0.961,-0.484,2.523,155.0,152.0,152.0,11.7,1504.7,271.4,-0.8,0.9,2485.46,13.29,779.0,1.076,116.7
2024-02-03T03:33:13,2420,42.8014,5.9826,1.03,0.016,2.475,155.0,152.0,152.0,11.8,1504.7,271.4,-0.8,0.9,2485.591,13.29,779.0,1.03,89.1
2024-02-03T03:36:13,2420,42.8014,5.9826,0.964,0.508,2.47,155.0,152.0,152.0,11.7,1504.7,271.4,-0.8,0.9,2485.213,13.29,781.0,1.09,62.2
2024-02-03T03:39:14,2420,42.8014,5.9826,1.267,0.037,3.124,155.0,151.0,152.0,11.8,1504.7,271.3,-0.8,0.9,2485.492,13.29,783.0,1.267,88.3
2024-02-03T03:42:14,2420,42.8014,5.9826,1.274,0.023,3.06,155.0,152.0,152.0,11.7,1504.7,271.4,-0.8,0.9,2485.338,13.29,783.0,1.274,89.0
2024-02-03T03:45:14,2420,42.8014,5.9826,1.251,0.027,3.087,155.0,152.0,152.0,11.8,1504.7,271.3,-0.8,0.9,2485.577,13.29,771.0,1.251,88.8
2024-02-03T03:48:14,2420,42.8014,5.9826,1.132,0.254,2.795,155.0,152.0,152.0,11.8,1504.7,271.4,-0.9,0.9,2485.285,13.29,767.0,1.16,77.4
2024-02-03T03:51:14,2420,42.8014,5.9826,1.14,0.26,2.745,155.0,151.0,152.0,11.8,1504.7,271.5,-0.8,0.9,2485.119,13.29,783.0,1.169,77.2
2024-02-03T03:54:13,2420,42.8014,5.9826,1.073,0.262,2.82,155.0,151.0,152.0,11.8,1504.7,271.5,-0.8,0.9,2484.97,13.29,772.0,1.104,76.3
2024-02-03T03:57:13,2420,42.8014,5.9826,1.171,0.254,2.78,155.0,152.0,152.0,11.8,1504.7,271.3,-0.8,0.9,2485.422,13.29,771.0,1.198,77.8
2024-02-03T04:03:13,2420,42.8014,5.9826,1.241,-0.007,3.071,155.0,152.0,152.0,11.8,1504.7,271.5,-0.8,0.9,2485.408,13.28,787.0,1.241,90.3
2024-02-03T04:06:14,2420,42.8014,5.9826,1.082,0.267,2.816,155.0,151.0,152.0,11.8,1504.7,271.3,-0.8,0.9,2485.299,13.28,785.0,1.114,76.1
2024-02-03T04:09:14,2420,42.8014,5.9826,1.232,0.009,3.13,155.0,152.0,152.0,11.8,1504.7,271.7,-0.8,0.9,2485.32,13.28,774.0,1.232,89.6
2024-02-03T04:12:14,2420,42.8014,5.9826,1.108,-0.226,2.784,155.0,152.0,152.0,11.7,1504.7,271.4,-0.8,0.9,2485.546,13.28,771.0,1.131,101.5
2024-02-03T04:15:14,2420,42.8014,5.9826,0.719,0.489,1.874,155.0,152.0,152.0,11.8,1504.7,271.4,-0.8,0.9,2485.619,13.28,775.0,0.87,55.8
2024-02-03T04:18:14,2420,42.8014,5.9826,1.296,0.027,3.065,155.0,152.0,152.0,11.8,1504.7,271.5,-0.8,0.9,2485.496,13.28,780.0,1.296,88.8
2024-02-03T04:21:13,2420,42.8014,5.9826,1.061,-0.241,2.832,155.0,152.0,152.0,11.7,1504.7,271.5,-0.8,0.9,2485.332,13.28,786.0,1.088,102.8
2024-02-03T04:24:13,2420,42.8014,5.9826,1.326,0.015,3.047,155.0,152.0,152.0,11.8,1504.7,271.5,-0.8,0.9,2485.269,13.28,781.0,1.326,89.4
2024-02-03T04:27:14,2420,42.8014,5.9826,1.273,0.023,3.052,155.0,151.0,152.0,11.8,1504.7,271.3,-0.9,0.9,2484.98,13.28,774.0,1.273,89.0
2024-02-03T04:30:14,2420,42.8014,5.9826,1.211,0.005,3.095,155.0,152.0,152.0,11.8,1504.7,271.5,-0.8,0.9,2485.53,13.28,769.0,1.211,89.8
2024-02-03T04:33:13,2420,42.8014,5.9826,1.269,0.027,3.082,155.0,152.0,152.0,11.8,1504.7,271.5,-0.8,0.9,2485.257,13.28,775.0,1.269,88.8
2024-02-03T04:36:14,2420,42.8014,5.9826,1.246,0.043,3.073,155.0,151.0,152.0,11.8,1504.7,271.3,-0.8,0.9,2485.219,13.28,782.0,1.246,88.0
2024-02-03T04:39:14,2420,42.8014,5.9826,1.104,-0.238,2.789,155.0,151.0,152.0,11.8,1504.7,271.4,-0.9,0.9,2485.157,13.28,775.0,1.129,102.2
2024-02-03T04:42:14,2420,42.8014,5.9826,0.836,-0.229,2.186,155.0,151.0,152.0,11.8,1504.7,271.3,-0.8,0.9,2485.237,13.28,778.0,0.867,105.3
2024-02-03T04:45:14,2420,42.8014,5.9826,1.259,0.018,3.079,155.0,152.0,152.0,11.8,1504.7,271.4,-0.8,0.9,2484.98,13.28,758.0,1.259,89.2
2024-02-03T04:48:13,2420,42.8014,5.9826,1.107,-0.228,2.804,155.0,152.0,152.0,11.8,1504.7,271.5,-0.8,0.9,2485.34,13.28,772.0,1.13,101.6
2024-02-03T04:51:13,2420,42.8014,5.9826,1.189,0.014,3.128,155.0,151.0,152.0,11.8,1504.7,271.5,-0.8,0.9,2485.866,13.28,783.0,1.189,89.3
2024-02-03T04:54:14,2420,42.8014,5.9826,1.239,0.006,3.109,155.0,152.0,152.0,11.8,1504.7,271.3,-0.8,0.8,2485.079,13.28,782.0,1.239,89.7
2024-02-03T04:57:14,2420,42.8014,5.9826,1.296,0.014,3.044,155.0,151.0,152.0,11.8,1504.7,271.5,-0.8,0.9,2485.729,13.28,786.0,1.296,89.4
2024-02-03T05:03:13,2420,42.8014,5.9826,1.231,0.018,3.126,155.0,152.0,152.0,11.8,1504.7,271.6,-0.8,0.9,2485.103,13.28,774.0,1.231,89.2
2024-02-03T05:06:14,2420,42.8014,5.9826,1.212,0.035,3.119,155.0,152.0,152.0,11.8,1504.7,271.3,-0.8,0.9,2485.077,13.28,772.0,1.212,88.3
2024-02-03T05:09:14,2420,42.8014,5.9826,0.959,-0.004,2.504,155.0,152.0,152.0,11.8,1504.7,271.5,-0.8,0.9,2485.279,13.28,792.0,0.959,90.2
2024-02-03T05:12:14,2420,42.8014,5.9826,1.244,0.03,3.052,155.0,151.0,152.0,11.8,1504.7,271.4,-0.8,0.9,2485.412,13.28,4162.0,1.244,88.6
2024-02-03T05:15:14,2420,42.8014,5.9826,1.025,0.021,2.515,155.0,152.0,152.0,11.8,1504.7,271.3,-0.9,0.9,2485.346,13.28,780.0,1.025,88.8
2024-02-03T05:18:14,2420,42.8014,5.9826,0.881,0.262,2.178,155.0,151.0,152.0,11.8,1504.7,271.4,-0.8,0.9,2485.229,13.29,785.0,0.919,73.4
2024-02-03T05:21:14,2420,42.8014,5.9826,1.231,0.002,3.095,155.0,151.0,152.0,11.8,1504.7,271.4,-0.8,0.9,2485.418,13.29,2063.0,1.231,89.9
2024-02-03T05:24:13,2420,42.8014,5.9826,1.169,-0.239,2.726,155.0,151.0,152.0,11.8,1504.7,271.3,-0.8,0.9,2485.167,13.28,780.0,1.193,101.6
2024-02-03T05:27:14,2420,42.8014,5.9826,0.957,-0.475,2.517,155.0,151.0,152.0,11.8,1504.7,271.6,-0.8,0.9,2485.468,13.28,777.0,1.068,116.4
2024-02-03T05:30:14,2420,42.8014,5.9826,1.122,0.261,2.824,155.0,152.0,152.0,11.8,1504.7,271.5,-0.8,0.9,2485.209,13.28,768.0,1.152,76.9
2024-02-03T05:33:13,2420,42.8014,5.9826,1.135,0.265,2.813,155.0,152.0,152.0,11.8,1504.7,271.5,-0.8,0.9,2485.372,13.28,792.0,1.165,76.9
2024-02-03T05:36:14,2420,42.8014,5.9826,1.019,-0.468,2.504,155.0,152.0,152.0,11.8,1504.7,271.4,-0.8,0.9,2485.35,13.28,790.0,1.121,114.7
2024-02-03T05:39:14,2420,42.8014,5.9826,1.161,-0.232,2.763,155.0,151.0,152.0,11.8,1504.7,271.4,-0.8,0.9,2485.4,13.28,771.0,1.184,101.3
2024-02-03T05:42:14,2420,42.8014,5.9826,1.279,0.014,3.06,155.0,152.0,152.0,11.8,1504.7,271.4,-0.8,0.9,2485.683,13.28,781.0,1.279,89.4
2024-02-03T05:45:14,2420,42.8014,5.9826,1.157,0.258,2.769,155.0,152.0,152.0,11.8,1504.7,271.3,-0.9,0.9,2485.452,13.28,795.0,1.185,77.4
2024-02-03T05:48:14,2420,42.8014,5.9826,1.056,-0.226,2.838,155.0,151.0,152.0,11.8,1504.7,271.4,-0.8,0.9,2485.456,13.28,779.0,1.08,102.1
2024-02-03T05:51:13,2420,42.8014,5.9826,1.297,0.023,3.037,155.0,152.0,152.0,11.8,1504.7,271.4,-0.8,0.9,2485.197,13.28,777.0,1.297,89.0
2024-02-03T05:54:13,2420,42.8014,5.9826,1.133,-0.228,2.803,155.0,151.0,152.0,11.8,1504.7,271.3,-0.8,0.9,2485.271,13.28,773.0,1.156,101.4
2024-02-03T05:57:14,2420,42.8014,5.9826,1.289,0.03,3.043,155.0,151.0,152.0,11.8,1504.7,271.4,-0.8,0.9,2485.253,13.28,777.0,1.289,88.7
2024-02-03T06:03:13,2420,42.8014,5.9826,1.246,0.015,3.07,155.0,151.0,152.0,11.8,1504.7,271.4,-0.9,0.9,2485.002,13.28,783.0,1.246,89.3
2024-02-03T06:06:14,2420,42.8014,5.9826,1.317,0.024,3.039,155.0,151.0,152.0,11.8,1504.7,271.5,-0.8,0.9,2485.476,13.28,777.0,1.317,89.0
2024-02-03T06:09:14,2420,42.8014,5.9826,1.221,0.015,3.047,155.0,152.0,152.0,11.8,1504.7,271.5,-0.8,0.9,2485.163,13.28,771.0,1.221,89.3
2024-02-03T06:12:14,2420,42.8014,5.9826,1.255,0.013,3.035,155.0,152.0,152.0,11.8,1504.7,271.5,-0.8,0.9,2485.191,13.28,777.0,1.255,89.4
2024-02-03T06:15:13,2420,42.8014,5.9826,1.244,0.01,3.031,155.0,151.0,152.0,11.8,1504.7,271.4,-0.8,0.9,2485.558,13.28,780.0,1.244,89.5
2024-02-03T06:18:13,2420,42.8014,5.9826,1.198,0.009,3.116,155.0,152.0,152.0,11.8,1504.7,271.3,-0.9,0.9,2485.374,13.28,780.0,1.198,89.6
2024-02-03T06:21:13,2420,42.8014,5.9826,1.246,0.006,3.064,155.0,152.0,152.0,11.8,1504.7,271.4,-0.8,0.9,2485.538,13.28,777.0,1.246,89.7
2024-02-03T06:24:13,2420,42.8014,5.9826,1.264,0.014,3.081,155.0,151.0,152.0,11.7,1504.7,271.4,-0.8,0.9,2485.291,13.28,766.0,1.264,89.4
2024-02-03T06:27:13,2420,42.8014,5.9826,0.951,0.517,2.511,155.0,152.0,152.0,11.8,1504.7,271.4,-0.8,0.9,2485.277,13.28,774.0,1.082,61.5
2024-02-03T06:30:14,2420,42.8014,5.9826,1.26,0.005,3.023,155.0,152.0,152.0,11.8,1504.7,271.5,-0.8,0.9,2485.468,13.28,785.0,1.26,89.8
2024-02-03T06:33:13,2420,42.8014,5.9826,1.31,0.042,3.005,155.0,152.0,152.0,11.8,1504.7,271.4,-0.8,0.9,2485.123,13.28,786.0,1.31,88.2
2024-02-03T06:36:13,2420,42.8014,5.9826,1.078,0.276,2.829,155.0,151.0,152.0,11.8,1504.7,271.3,-0.8,0.9,2485.131,13.28,782.0,1.113,75.6
2024-02-03T06:39:14,2420,42.8014,5.9826,1.289,0.014,3.091,155.0,151.0,152.0,11.8,1504.7,271.4,-0.8,0.9,2485.259,13.28,780.0,1.289,89.4
2024-02-03T06:42:14,2420,42.8014,5.9826,1.211,0.25,2.697,155.0,152.0,152.0,11.8,1504.7,271.3,-0.8,0.9,2485.735,13.28,772.0,1.236,78.3
2024-02-03T06:45:14,2420,42.8014,5.9826,1.28,0.025,3.044,155.0,152.0,152.0,11.8,1504.7,271.3,-0.8,0.9,2485.173,13.28,779.0,1.28,88.9
2024-02-03T06:48:14,2420,42.8014,5.9826,1.248,0.017,3.093,155.0,151.0,152.0,11.8,1504.7,271.4,-0.8,0.9,2485.759,13.28,776.0,1.248,89.2
2024-02-03T06:51:14,2420,42.8014,5.9826,1.018,0.009,2.442,155.0,152.0,152.0,11.8,1504.7,271.3,-0.8,0.9,2485.416,13.28,781.0,1.018,89.5
2024-02-03T06:54:13,2420,42.8014,5.9826,1.305,0.021,3.037,155.0,151.0,152.0,11.8,1504.7,271.2,-0.8,0.9,2485.326,13.28,769.0,1.305,89.1
2024-02-03T06:57:13,2420,42.8014,5.9826,1.294,0.02,3.056,155.0,152.0,152.0,11.8,1504.7,271.3,-0.8,0.9,2485.36,13.28,777.0,1.294,89.1
2024-02-03T07:03:13,2420,42.8014,5.9826,1.245,0.026,3.058,155.0,152.0,152.0,11.7,1504.7,271.4,-0.8,0.9,2485.42,13.28,773.0,1.245,88.8
2024-02-03T07:06:13,2420,42.8014,5.9826,1.297,0.015,3.033,155.0,152.0,152.0,11.8,1504.7,271.4,-0.8,0.9,2485.468,13.28,774.0,1.297,89.3
2024-02-03T07:09:13,2420,42.8014,5.9826,1.097,-0.251,2.779,155.0,152.0,152.0,11.7,1504.7,271.4,-0.9,0.9,2485.314,13.28,773.0,1.125,102.9
2024-02-03T07:12:14,2420,42.8014,5.9826,1.297,0.01,3.023,155.0,152.0,152.0,11.8,1504.7,271.4,-0.8,0.9,2485.348,13.28,768.0,1.297,89.6
2024-02-03T07:15:14,2420,42.8014,5.9826,1.281,0.019,3.043,155.0,152.0,152.0,11.8,1504.7,271.4,-0.8,0.9,2485.715,13.28,779.0,1.281,89.2
2024-02-03T07:18:13,2420,42.8014,5.9826,1.237,0.001,3.08,155.0,151.0,152.0,11.8,1504.7,271.4,-0.8,0.9,2485.299,13.28,783.0,1.237,90.0
2024-02-03T07:21:13,2420,42.8014,5.9826,1.281,0.017,3.04,155.0,152.0,152.0,11.8,1504.7,271.3,-0.9,0.9,2485.579,13.28,768.0,1.281,89.2
2024-02-03T07:24:14,2420,42.8014,5.9826,0.992,0.586,2.34,155.0,151.0,153.0,11.8,1504.7,271.4,-0.9,0.9,2485.496,13.28,773.0,1.152,59.4
2024-02-03T07:27:14,2420,42.8014,5.9826,1.259,0.024,3.052,155.0,152.0,152.0,11.8,1504.7,271.4,-0.8,0.9,2485.249,13.28,779.0,1.259,88.9
2024-02-03T07:30:14,2420,42.8014,5.9826,1.25,0.005,3.108,155.0,152.0,152.0,11.8,1504.7,271.3,-0.8,0.8,2485.522,13.28,787.0,1.25,89.8
2024-02-03T07:33:13,2420,42.8014,5.9826,1.274,0.02,3.057,155.0,151.0,152.0,11.8,1504.7,271.4,-0.8,0.9,2485.281,13.28,832.0,1.274,89.1
2024-02-03T07:36:14,2420,42.8014,5.9826,1.214,0.038,3.109,155.0,152.0,152.0,11.7,1504.7,271.5,-0.8,0.9,2485.336,13.28,782.0,1.214,88.2
2024-02-03T07:39:14,2420,42.8014,5.9826,1.263,0.002,3.024,155.0,152.0,152.0,11.8,1504.7,271.4,-0.8,0.9,2485.344,13.28,786.0,1.263,89.9
2024-02-03T07:42:14,2420,42.8014,5.9826,1.288,0.012,2.972,155.0,152.0,152.0,11.8,1504.7,271.4,-0.8,0.9,2485.386,13.28,787.0,1.288,89.5
2024-02-03T07:45:14,2420,42.8014,5.9826,1.101,0.253,2.772,155.0,151.0,152.0,11.8,1504.7,271.3,-0.8,0.9,2485.472,13.28,776.0,1.13,77.1
2024-02-03T07:48:13,2420,42.8014,5.9826,1.242,0.027,3.053,155.0,152.0,152.0,11.8,1504.7,271.3,-0.8,0.9,2485.454,13.28,777.0,1.242,88.8
2024-02-03T07:51:13,2420,42.8014,5.9826,1.147,-0.242,2.761,155.0,151.0,152.0,11.8,1504.7,271.3,-0.8,0.9,2485.562,13.28,781.0,1.172,101.9
2024-02-03T07:54:14,2420,42.8014,5.9826,1.246,0.125,2.872,155.0,151.0,154.0,11.8,1504.7,271.4,-0.8,0.9,2485.073,13.28,778.0,1.252,84.3
2024-02-03T07:57:14,2420,42.8014,5.9826,1.224,0.052,3.017,155.0,152.0,152.0,11.8,1504.7,271.4,-0.8,0.9,2485.111,13.28,772.0,1.225,87.6
2024-02-03T08:03:13,2420,42.8014,5.9826,1.255,0.018,3.005,155.0,151.0,152.0,11.8,1504.7,271.3,-0.8,0.9,2485.575,13.28,788.0,1.255,89.2
2024-02-03T08:06:13,2420,42.8014,5.9826,1.285,0.013,3.02,155.0,151.0,152.0,11.8,1504.7,271.4,-0.8,0.9,2485.354,13.28,791.0,1.285,89.4
2024-02-03T08:09:14,2420,42.8014,5.9826,1.265,0.026,3.017,155.0,151.0,152.0,11.8,1504.7,271.3,-0.8,0.9,2485.438,13.28,781.0,1.265,88.8
2024-02-03T08:12:14,2420,42.8014,5.9826,1.264,0.024,3.063,155.0,152.0,152.0,11.8,1504.7,271.4,-0.9,0.9,2485.482,13.28,793.0,1.264,88.9
2024-02-03T08:15:13,2420,42.8014,5.9826,1.262,0.039,3.077,155.0,151.0,152.0,11.8,1504.7,271.3,-0.9,0.9,2485.733,13.28,780.0,1.262,88.2
2024-02-03T08:18:14,2420,42.8014,5.9826,1.236,0.021,3.133,155.0,152.0,152.0,11.8,1504.7,271.5,-0.8,0.9,2485.412,13.28,783.0,1.236,89.0
2024-02-03T08:21:13,2420,42.8014,5.9826,1.144,0.009,3.115,155.0,152.0,152.0,11.7,1504.7,271.4,-0.8,0.9,2485.54,13.28,774.0,1.144,89.6
2024-02-03T08:24:14,2420,42.8014,5.9826,1.285,0.007,3.022,155.0,151.0,152.0,11.8,1504.7,271.3,-0.9,0.9,2485.681,13.28,773.0,1.285,89.7
2024-02-03T08:27:14,2420,42.8014,5.9826,1.068,0.261,2.811,155.0,151.0,152.0,11.8,1504.7,271.4,-0.8,0.9,2485.253,13.28,773.0,1.099,76.3
2024-02-03T08:30:13,2420,42.8014,5.9826,1.28,0.015,3.051,155.0,151.0,152.0,11.8,1504.7,271.3,-0.8,0.9,2485.143,13.28,762.0,1.28,89.3
2024-02-03T08:33:13,2420,42.8014,5.9826,1.153,0.25,2.72,155.0,151.0,152.0,11.8,1504.7,271.3,-0.8,0.9,2485.562,13.28,777.0,1.18,77.8
2024-02-03T08:36:13,2420,42.8014,5.9826,1.249,0.033,3.09,155.0,151.0,152.0,11.8,1504.7,271.3,-0.8,0.9,2485.601,13.28,768.0,1.249,88.5
2024-02-03T08:39:13,2420,42.8014,5.9826,1.162,0.256,2.723,155.0,151.0,152.0,11.8,1504.7,271.3,-0.8,0.9,2485.458,13.28,783.0,1.19,77.6
2024-02-03T08:42:13,2420,42.8014,5.9826,1.277,0.01,3.041,155.0,151.0,152.0,11.8,1504.7,271.3,-0.8,0.9,2485.332,13.28,781.0,1.277,89.6
2024-02-03T08:45:13,2420,42.8014,5.9826,1.094,0.27,2.795,155.0,151.0,152.0,11.8,1504.7,271.3,-0.8,0.9,2485.223,13.28,781.0,1.127,76.1
2024-02-03T08:48:14,2420,42.8014,5.9826,1.219,0.023,3.045,155.0,152.0,152.0,11.8,1504.7,271.3,-0.8,0.9,2485.759,13.28,766.0,1.219,88.9
2024-02-03T08:51:14,2420,42.8014,5.9826,1.233,-0.101,2.896,155.0,152.0,152.0,11.7,1504.7,271.4,-0.8,0.9,2485.159,13.28,788.0,1.237,94.7
2024-02-03T08:54:14,2420,42.8014,5.9826,1.277,0.029,3.079,156.0,151.0,152.0,11.8,1504.7,271.3,-0.9,0.9,2485.374,13.28,773.0,1.277,88.7
2024-02-03T08:57:13,2420,42.8014,5.9826,1.062,0.533,2.407,155.0,151.0,152.0,11.8,1504.7,271.3,-0.8,0.9,2485.504,13.28,780.0,1.188,63.3
2024-02-03T09:03:13,2420,42.8014,5.9826,1.296,0.038,3.041,155.0,151.0,152.0,11.8,1504.7,271.4,-0.8,0.9,2485.167,13.28,766.0,1.296,88.3
2024-02-03T09:06:13,2420,42.8014,5.9826,1.149,-0.24,2.789,155.0,152.0,152.0,11.8,1504.7,271.4,-0.8,0.9,2485.119,13.28,789.0,1.174,101.8